Regional Weather Roundup
Issued by NWS Little Rock, AR

Home | Current Version | Previous Version | Text Only | Print | Product List | Glossary On
Versions: 1 2 3 4 5 6 7 8 9 10 11 12 13 14 15 16 17 18 19 20 21 22 23 24 25 26 27 28 29 30 31 32 33 34 35 36 37 38 39 40 41 42 43 44 45 46 47 48 49 50
000
ASUS44 KLZK 050705
RWRLZK

WEATHER ROUNDUP FOR ARKANSAS
NATIONAL WEATHER SERVICE LITTLE ROCK AR
100 AM CST THU MAR 05 2015

NOTE: "FAIR" INDICATES FEW OR NO CLOUDS BELOW 12,000 FEET WITH NO
SIGNIFICANT WEATHER AND/OR OBSTRUCTIONS TO VISIBILITY.

ARZ001-003-010-029-050800-
NORTHWEST ARKANSAS

CITY           SKY/WX    TMP DP  RH WIND       PRES   REMARKS
FAYETTEVILLE   LGT SNOW  20  15  81 N7        30.34S WCI  11
FORT SMITH     LGT SNOW  24  18  77 N17       30.37S WCI  11
HARRISON       CLOUDY    20  13  74 NW7       30.34R WCI  11
BENTONVILLE    CLOUDY    21  12  68 N9        30.35F WCI  11
ROGERS         CLOUDY    20  15  81 N5        30.35S WCI  13
SILOAM SPGS    CLOUDY    21  10  63 N9        30.35F WCI  11
HIGHFILL       CLOUDY    22  15  75 N9        30.34S WCI  12
$$

ARZ004-005-016-050800-
NORTH CENTRAL ARKANSAS

CITY           SKY/WX    TMP DP  RH WIND       PRES   REMARKS
BATESVILLE     CLOUDY    19  16  86 N8        30.36R WCI   9
FLIPPIN        PTCLDY    21  12  68 CALM      30.37R
MTN HOME       CLOUDY    20  14  77 CALM      30.36R
$$

ARZ040-041-050800-
WEST CENTRAL ARKANSAS

CITY           SKY/WX    TMP DP  RH WIND       PRES   REMARKS
MENA           CLOUDY    28  25  86 CALM      30.31R
MOUNT IDA      LGT SNOW  25  21  85 CALM      30.31R FOG
$$

ARZ009-017-025-026-028-050800-
NORTHEAST ARKANSAS

CITY           SKY/WX    TMP DP  RH WIND       PRES   REMARKS
CORNING        LGT SNOW  21  16  79 N10G21    30.36R WCI  10
JONESBORO      FOG       19  17  92 N15G26    30.32R VSB 1/2 WCI   5
NEWPORT        LGT SNOW  21  19  92 N22       30.35R FOG     WCI   5
WALNUT RIDGE   CLOUDY    19  16  86 N13       30.35R VSB 3/4 WCI   7
BLYTHEVILLE    FOG       20  18  92 N29       30.31R VSB 1/2 WCI   1
$$

ARZ022-023-033-042-044-050800-
CENTRAL ARKANSAS

CITY           SKY/WX    TMP DP  RH WIND       PRES   REMARKS
LITTLE ROCK    HVY SNOW  23  19  85 N18G28    30.32S VSB 1/4 WCI   9
N LITTLE ROCK    N/A     21  21  98 N15G24    30.32R WCI   8
JACKSONVILLE   LGT SNOW  22  19  88 N13       30.33R FOG     WCI  10
SEARCY         LGT SNOW  21  19  92 N16G22    30.34R VSB 1   WCI   7
HOT SPRINGS    LGT SNOW  25  19  78 VRB6      30.32R WCI  18
RUSSELLVILLE   LGT SNOW  24  18  77 N12       30.36S WCI  13
CLINTON        FLURRIES  23  14  68 CALM      30.37R
$$

ARZ036-050800-
EAST ARKANSAS

CITY           SKY/WX    TMP DP  RH WIND       PRES   REMARKS
WEST MEMPHIS   MIX PCPN  22  20  92 N22G32    30.26R FOG     WCI   6
$$

ARZ050-053-066-070-073-050800-
SOUTHWEST ARKANSAS

CITY           SKY/WX    TMP DP  RH WIND       PRES   REMARKS
ARKADELPHIA    LGT SNOW  26  26 100 N8        30.32R VSB 3/4 WCI  18
CAMDEN         HVY RAIN  30  28  93 CALM      30.26R VSB 1
TEXARKANA      MIX PCPN  30  30 100 N18G28    30.25F FOG     WCI  18
EL DORADO      LGT SNOW  32  31  96 N9        30.21R FOG     WCI  24
DE QUEEN       SNOW      29  26  89 N7        30.30F VSB 1/2 WCI  22
$$

ARZ056-057-069-050800-
SOUTHEAST ARKANSAS

CITY           SKY/WX    TMP DP  RH WIND       PRES   REMARKS
PINE BLUFF     MIX PCPN  25  22  88 N28G37    30.25R FOG     WCI   9
STUTTGART      CLOUDY    25  18  74 N31       30.26F WCI   8
MONTICELLO     MIX PCPN  28  25  88 NE10G23   30.16S FOG     WCI  19

$$





USA.gov is the U.S. government's official web portal to all federal, state and local government web resources and services.